AIZ815 LLBG-LLER

Flight info

Callsign AIZ815
Flight time 0h 33m
Altitude 19000
Route TOMAL J10 NURIT
Aircraft A320/M-SDE1FGHIJ1LORVWY/EB1

Departure

Time 2026-04-26 18:25
Airport Ben Gurion International Airport (LLBG)

Arrival

Time 2026-04-26 18:58
Airport Ramon International Airport (LLER)
Time Latitude Longitude Altitude Speed Heading
2026-04-26 18:14 31.99654 34.88944 120 ft 0 kts 288°
2026-04-26 18:17 31.99654 34.88945 120 ft 2 kts 288°
2026-04-26 18:17 31.99646 34.88974 117 ft 4 kts 288°
2026-04-26 18:17 31.99637 34.89004 120 ft 4 kts 287°
2026-04-26 18:18 31.99631 34.89028 120 ft 4 kts 304°
2026-04-26 18:18 31.99613 34.89038 115 ft 4 kts 17°
2026-04-26 18:18 31.99622 34.89042 117 ft 4 kts 18°
2026-04-26 18:18 31.99648 34.89052 117 ft 4 kts 18°
2026-04-26 18:19 31.99674 34.89061 120 ft 4 kts 17°
2026-04-26 18:19 31.99698 34.89070 120 ft 2 kts 17°
2026-04-26 18:19 31.99699 34.89070 120 ft 0 kts 17°
2026-04-26 18:22 31.99714 34.89076 120 ft 7 kts 17°
2026-04-26 18:22 31.99799 34.89107 118 ft 18 kts 18°
2026-04-26 18:22 31.99892 34.89181 120 ft 17 kts 99°
2026-04-26 18:22 31.99824 34.89300 120 ft 18 kts 124°
2026-04-26 18:23 31.99822 34.89420 117 ft 17 kts 32°
2026-04-26 18:23 31.99871 34.89440 120 ft 0 kts 14°
2026-04-26 18:23 31.99874 34.89441 120 ft 3 kts 14°
2026-04-26 18:23 31.99950 34.89467 120 ft 16 kts 16°
2026-04-26 18:24 31.99990 34.89442 120 ft 14 kts 301°
2026-04-26 18:24 32.00101 34.89232 117 ft 57 kts 302°
2026-04-26 18:24 32.00427 34.88607 118 ft 120 kts 300°
2026-04-26 18:24 32.00949 34.87584 136 ft 168 kts 302°
2026-04-26 18:25 32.01566 34.86385 660 ft 172 kts 301°
2026-04-26 18:25 32.01938 34.85030 1250 ft 182 kts 265°
2026-04-26 18:25 32.01331 34.83743 1818 ft 190 kts 213°
2026-04-26 18:25 32.00039 34.83302 2203 ft 205 kts 174°
2026-04-26 18:26 31.98756 34.84012 2751 ft 211 kts 132°
2026-04-26 18:26 31.97978 34.85475 3350 ft 213 kts 114°
2026-04-26 18:26 31.97420 34.87116 3952 ft 216 kts 109°
2026-04-26 18:26 31.96972 34.88796 4655 ft 214 kts 107°
2026-04-26 18:27 31.96445 34.90481 5094 ft 226 kts 115°
2026-04-26 18:27 31.95772 34.92242 5396 ft 244 kts 116°
2026-04-26 18:27 31.95021 34.94146 5675 ft 269 kts 116°
2026-04-26 18:27 31.94207 34.96213 6196 ft 285 kts 116°
2026-04-26 18:28 31.93368 34.98365 6791 ft 292 kts 116°
2026-04-26 18:28 31.92528 35.00541 6961 ft 292 kts 116°
2026-04-26 18:28 31.91687 35.02738 7333 ft 297 kts 116°
2026-04-26 18:28 31.90842 35.04949 8235 ft 296 kts 116°
2026-04-26 18:29 31.89995 35.07168 9064 ft 299 kts 116°
2026-04-26 18:29 31.89139 35.09412 9733 ft 303 kts 117°
2026-04-26 18:29 31.88278 35.11667 9939 ft 301 kts 117°
2026-04-26 18:29 31.87399 35.13965 10008 ft 322 kts 117°
2026-04-26 18:30 31.86482 35.16356 10001 ft 319 kts 117°
2026-04-26 18:30 31.85550 35.18777 10005 ft 320 kts 117°
2026-04-26 18:30 31.84609 35.21223 10002 ft 324 kts 117°
2026-04-26 18:30 31.83686 35.23623 10013 ft 326 kts 117°
2026-04-26 18:31 31.82773 35.26003 10000 ft 313 kts 117°
2026-04-26 18:31 31.81867 35.28370 9998 ft 313 kts 117°
2026-04-26 18:31 31.80968 35.30717 10004 ft 321 kts 117°
2026-04-26 18:31 31.80067 35.33062 10005 ft 318 kts 117°
2026-04-26 18:32 31.79157 35.35420 10089 ft 311 kts 117°
2026-04-26 18:32 31.78252 35.37761 10411 ft 324 kts 117°
2026-04-26 18:32 31.77160 35.40178 10599 ft 345 kts 126°
2026-04-26 18:32 31.75603 35.42412 10833 ft 361 kts 138°
2026-04-26 18:33 31.73645 35.44275 11421 ft 364 kts 150°
2026-04-26 18:33 31.71396 35.45610 12150 ft 362 kts 162°
2026-04-26 18:33 31.68969 35.46348 12912 ft 360 kts 173°
2026-04-26 18:33 31.66474 35.46500 13608 ft 360 kts 185°
2026-04-26 18:34 31.63999 35.46072 14274 ft 361 kts 193°
2026-04-26 18:34 31.61535 35.45476 14932 ft 363 kts 193°
2026-04-26 18:34 31.59052 35.44900 15570 ft 364 kts 192°
2026-04-26 18:34 31.56554 35.44342 16185 ft 367 kts 192°
2026-04-26 18:35 31.54034 35.43791 16799 ft 370 kts 192°
2026-04-26 18:35 31.51497 35.43238 17404 ft 372 kts 193°
2026-04-26 18:35 31.48946 35.42678 17989 ft 374 kts 193°
2026-04-26 18:35 31.46385 35.42109 18563 ft 376 kts 193°
2026-04-26 18:36 31.43808 35.41532 18910 ft 378 kts 194°
2026-04-26 18:36 31.41208 35.40951 18995 ft 385 kts 194°
2026-04-26 18:36 31.38527 35.40351 19008 ft 400 kts 194°
2026-04-26 18:36 31.35750 35.39731 19008 ft 410 kts 193°
2026-04-26 18:37 31.33857 35.39312 19004 ft 412 kts 193°
2026-04-26 18:37 31.30991 35.38925 19007 ft 415 kts 188°
2026-04-26 18:37 31.28115 35.38630 19005 ft 416 kts 188°
2026-04-26 18:37 31.25230 35.38330 19005 ft 416 kts 188°
2026-04-26 18:38 31.22345 35.38029 19002 ft 416 kts 188°
2026-04-26 18:38 31.19462 35.37727 18996 ft 416 kts 188°
2026-04-26 18:38 31.16577 35.37424 18993 ft 416 kts 188°
2026-04-26 18:38 31.13695 35.37121 18994 ft 416 kts 188°
2026-04-26 18:39 31.10805 35.36820 18996 ft 417 kts 188°
2026-04-26 18:39 31.07913 35.36521 18994 ft 417 kts 188°
2026-04-26 18:39 31.05022 35.36229 18992 ft 417 kts 188°
2026-04-26 18:39 31.02130 35.35936 18993 ft 417 kts 188°
2026-04-26 18:40 30.99235 35.35641 18994 ft 418 kts 188°
2026-04-26 18:40 30.96346 35.35325 18991 ft 416 kts 191°
2026-04-26 18:40 30.93534 35.34618 18984 ft 412 kts 200°
2026-04-26 18:40 30.90872 35.33414 18982 ft 410 kts 206°
2026-04-26 18:41 30.88247 35.32106 18980 ft 410 kts 206°
2026-04-26 18:41 30.85620 35.30802 18973 ft 410 kts 206°
2026-04-26 18:41 30.82995 35.29504 18976 ft 411 kts 205°
2026-04-26 18:41 30.80358 35.28207 18974 ft 411 kts 205°
2026-04-26 18:42 30.77721 35.26916 18975 ft 411 kts 205°
2026-04-26 18:42 30.75087 35.25626 18972 ft 411 kts 205°
2026-04-26 18:42 30.72415 35.24315 18980 ft 412 kts 206°
2026-04-26 18:42 30.69778 35.23018 18981 ft 412 kts 206°
2026-04-26 18:43 30.67140 35.21722 18976 ft 411 kts 205°
2026-04-26 18:43 30.64507 35.20430 18976 ft 411 kts 206°
2026-04-26 18:43 30.61869 35.19136 18975 ft 412 kts 206°
2026-04-26 18:43 30.59231 35.17840 18983 ft 411 kts 206°
2026-04-26 18:44 30.56580 35.16590 18980 ft 413 kts 202°
2026-04-26 18:44 30.53797 35.15768 18807 ft 409 kts 194°
2026-04-26 18:44 30.50990 35.15201 17790 ft 411 kts 193°
2026-04-26 18:44 30.48168 35.14660 16951 ft 410 kts 193°
2026-04-26 18:45 30.45392 35.14144 16272 ft 396 kts 192°
2026-04-26 18:45 30.42718 35.13651 15630 ft 381 kts 192°
2026-04-26 18:45 30.40145 35.13174 15016 ft 368 kts 192°
2026-04-26 18:45 30.37652 35.12703 14439 ft 360 kts 192°
2026-04-26 18:46 30.35183 35.12224 13870 ft 360 kts 192°
2026-04-26 18:46 30.32723 35.11739 13303 ft 357 kts 191°
2026-04-26 18:46 30.30281 35.11262 12754 ft 355 kts 191°
2026-04-26 18:46 30.27850 35.10799 12207 ft 353 kts 190°
2026-04-26 18:47 30.25440 35.10347 11659 ft 350 kts 190°
2026-04-26 18:47 30.23043 35.09901 11145 ft 347 kts 190°
2026-04-26 18:47 30.20711 35.09457 11002 ft 332 kts 191°
2026-04-26 18:47 30.18489 35.09007 10874 ft 318 kts 191°
2026-04-26 18:48 30.16381 35.08566 10742 ft 297 kts 191°
2026-04-26 18:48 30.14395 35.08150 10381 ft 286 kts 192°
2026-04-26 18:48 30.12449 35.07741 10128 ft 283 kts 192°
2026-04-26 18:48 30.10513 35.07334 9880 ft 283 kts 192°
2026-04-26 18:49 30.08574 35.06929 9754 ft 284 kts 192°
2026-04-26 18:49 30.06626 35.06521 9619 ft 285 kts 192°
2026-04-26 18:49 30.04672 35.06126 9498 ft 285 kts 191°
2026-04-26 18:49 30.02686 35.05737 9382 ft 286 kts 191°
2026-04-26 18:50 30.00747 35.05364 9253 ft 287 kts 191°
2026-04-26 18:50 29.98775 35.04985 8924 ft 290 kts 191°
2026-04-26 18:50 29.96749 35.04591 8436 ft 291 kts 192°
2026-04-26 18:50 29.94743 35.04200 7866 ft 295 kts 191°
2026-04-26 18:51 29.92753 35.03814 7707 ft 284 kts 192°
2026-04-26 18:51 29.90843 35.03443 7572 ft 273 kts 192°
2026-04-26 18:51 29.89001 35.03085 7345 ft 265 kts 192°
2026-04-26 18:51 29.87179 35.02734 6955 ft 265 kts 192°
2026-04-26 18:52 29.85368 35.02387 6576 ft 264 kts 192°
2026-04-26 18:52 29.83565 35.02043 6197 ft 262 kts 192°
2026-04-26 18:52 29.81811 35.01574 5842 ft 256 kts 204°
2026-04-26 18:52 29.80194 35.00768 5648 ft 253 kts 207°
2026-04-26 18:53 29.78579 34.99957 5435 ft 253 kts 206°
2026-04-26 18:53 29.76976 34.99159 5217 ft 247 kts 206°
2026-04-26 18:53 29.75420 34.98389 5012 ft 240 kts 206°
2026-04-26 18:53 29.73899 34.97637 4823 ft 236 kts 206°
2026-04-26 18:54 29.72397 34.96893 4524 ft 235 kts 206°
2026-04-26 18:54 29.70879 34.96280 4393 ft 227 kts 199°
2026-04-26 18:54 29.69407 34.95782 4183 ft 216 kts 199°
2026-04-26 18:54 29.67979 34.95302 3835 ft 212 kts 199°
2026-04-26 18:55 29.66580 34.94830 3481 ft 209 kts 198°
2026-04-26 18:55 29.65181 34.94460 3111 ft 204 kts 181°
2026-04-26 18:55 29.63915 34.95062 2743 ft 200 kts 134°
2026-04-26 18:55 29.63331 34.96463 2397 ft 194 kts 108°
2026-04-26 18:56 29.63338 34.97945 2068 ft 189 kts 69°
2026-04-26 18:56 29.64250 34.98982 1670 ft 189 kts 22°
2026-04-26 18:56 29.65473 34.99328 1499 ft 172 kts 16°
2026-04-26 18:56 29.66575 34.99650 1320 ft 157 kts 19°
2026-04-26 18:57 29.67556 34.99990 1135 ft 141 kts 17°
2026-04-26 18:57 29.68181 35.00186 983 ft 136 kts 12°
2026-04-26 18:57 29.69405 35.00471 689 ft 133 kts 15°
2026-04-26 18:57 29.70305 35.00725 512 ft 133 kts 15°
2026-04-26 18:58 29.71206 35.00985 351 ft 134 kts 15°
2026-04-26 18:58 29.72076 35.01236 303 ft 116 kts 13°
2026-04-26 18:58 29.72598 35.01379 298 ft 54 kts 14°
2026-04-26 18:58 29.72931 35.01472 299 ft 39 kts 13°
2026-04-26 18:59 29.73125 35.01514 300 ft 25 kts
2026-04-26 18:59 29.73296 35.01490 299 ft 16 kts 343°
2026-04-26 18:59 29.73388 35.01429 298 ft 16 kts 288°
2026-04-26 18:59 29.73318 35.01358 298 ft 14 kts 194°
2026-04-26 19:00 29.73219 35.01328 298 ft 19 kts 194°
2026-04-26 19:00 29.73073 35.01287 298 ft 21 kts 193°
2026-04-26 19:00 29.72928 35.01249 300 ft 21 kts 193°
2026-04-26 19:00 29.72786 35.01208 298 ft 21 kts 193°
2026-04-26 19:01 29.72624 35.01164 298 ft 27 kts 193°
2026-04-26 19:01 29.72444 35.01112 298 ft 23 kts 194°
2026-04-26 19:01 29.72401 35.01021 298 ft 15 kts 283°
2026-04-26 19:01 29.72428 35.00902 298 ft 16 kts 286°
2026-04-26 19:02 29.72480 35.00883 299 ft 7 kts 19°
2026-04-26 19:02 29.72512 35.00865 299 ft 6 kts 272°
2026-04-26 19:02 29.72520 35.00818 298 ft 6 kts 284°
2026-04-26 19:02 29.72526 35.00789 298 ft 0 kts 284°